contact:dominique.lefevre@mio.osupytheas.fr, maurice.libes@osupytheas.fr, didier.mallarino@osupytheas.fr
Project:EMSO http://www.emso-fr.org/EMSO-France
Depth: 2436.0 m
Title:EMSO Ligure Ouest : Data MII capteur CSTAR
DateTime,Latitude,Longitude,Instrument_Serial,Reference_Counts,Signal_Counts,Corrected_Signal_raw_counts,Calculated_Beam_c_inverse_meters,Internal_thermistor_counts
DateTime,Latitude,Longitude,Instrument_Serial,Reference_Counts,Signal_Counts,Corrected_Signal_raw_counts,Calculated_Beam_c_inverse_meters,Internal_thermistor_counts
2021-12-31T00:00:39,42.805,6.029,CST-1368DR,5004,6395,13660,0.535,551
2021-12-31T00:03:41,42.805,6.029,CST-1368DR,5004,6396,13661,0.535,551
2021-12-31T00:06:42,42.805,6.029,CST-1368DR,5004,6396,13662,0.535,551
2021-12-31T00:09:44,42.805,6.029,CST-1368DR,5004,6396,13661,0.535,551
2021-12-31T00:12:46,42.805,6.029,CST-1368DR,5004,6395,13660,0.535,551
2021-12-31T00:15:47,42.805,6.029,CST-1368DR,5004,6394,13658,0.536,551
2021-12-31T00:18:49,42.805,6.029,CST-1368DR,5004,6396,13661,0.535,551
2021-12-31T00:21:50,42.805,6.029,CST-1368DR,5004,6396,13661,0.535,551
2021-12-31T00:24:52,42.805,6.029,CST-1368DR,5004,6393,13655,0.537,551
2021-12-31T00:27:54,42.805,6.029,CST-1368DR,5004,6395,13660,0.535,551
2021-12-31T00:30:55,42.805,6.029,CST-1368DR,5004,6395,13659,0.536,551
2021-12-31T00:33:57,42.805,6.029,CST-1368DR,5004,6396,13661,0.535,551
2021-12-31T00:36:58,42.805,6.029,CST-1368DR,5004,6395,13658,0.536,551
2021-12-31T00:40:00,42.805,6.029,CST-1368DR,5004,6396,13660,0.535,551
2021-12-31T00:43:01,42.805,6.029,CST-1368DR,5004,6395,13658,0.536,551
2021-12-31T00:46:03,42.805,6.029,CST-1368DR,5004,6395,13660,0.535,551
2021-12-31T00:49:05,42.805,6.029,CST-1368DR,5004,6393,13655,0.537,551
2021-12-31T00:52:06,42.805,6.029,CST-1368DR,5004,6396,13660,0.535,551
2021-12-31T00:55:08,42.805,6.029,CST-1368DR,5004,6396,13660,0.535,551
2021-12-31T00:58:09,42.805,6.029,CST-1368DR,5004,6396,13661,0.535,551
2021-12-31T01:01:11,42.805,6.029,CST-1368DR,5004,6394,13658,0.536,551
2021-12-31T01:04:12,42.805,6.029,CST-1368DR,5004,6397,13662,0.535,551
2021-12-31T01:07:14,42.805,6.029,CST-1368DR,5004,6396,13661,0.535,551
2021-12-31T01:10:16,42.805,6.029,CST-1368DR,5004,6395,13659,0.536,551
2021-12-31T01:13:17,42.805,6.029,CST-1368DR,5004,6395,13660,0.535,551
2021-12-31T01:16:19,42.805,6.029,CST-1368DR,5004,6396,13662,0.535,551
2021-12-31T01:19:20,42.805,6.029,CST-1368DR,5004,6396,13661,0.535,551
2021-12-31T01:22:22,42.805,6.029,CST-1368DR,5004,6395,13660,0.535,551
2021-12-31T01:25:24,42.805,6.029,CST-1368DR,5004,6396,13661,0.535,551
2021-12-31T01:28:25,42.805,6.029,CST-1368DR,5004,6395,13660,0.535,551
2021-12-31T01:31:27,42.805,6.029,CST-1368DR,5004,6396,13661,0.535,551
2021-12-31T01:34:28,42.805,6.029,CST-1368DR,5004,6395,13658,0.536,551
2021-12-31T01:37:30,42.805,6.029,CST-1368DR,5004,6394,13656,0.536,551
2021-12-31T01:40:31,42.805,6.029,CST-1368DR,5004,6396,13660,0.535,551
2021-12-31T01:43:33,42.805,6.029,CST-1368DR,5004,6396,13661,0.535,551
2021-12-31T01:46:35,42.805,6.029,CST-1368DR,5004,6396,13660,0.535,551
2021-12-31T01:49:36,42.805,6.029,CST-1368DR,5004,6395,13658,0.536,551
2021-12-31T01:52:38,42.805,6.029,CST-1368DR,5004,6395,13658,0.536,551
2021-12-31T01:55:39,42.805,6.029,CST-1368DR,5004,6395,13660,0.535,551
2021-12-31T01:58:41,42.805,6.029,CST-1368DR,5004,6395,13659,0.536,551
2021-12-31T02:01:43,42.805,6.029,CST-1368DR,5004,6396,13660,0.535,551
2021-12-31T02:04:44,42.805,6.029,CST-1368DR,5004,6396,13660,0.535,551
2021-12-31T02:07:46,42.805,6.029,CST-1368DR,5004,6396,13661,0.535,551
2021-12-31T02:10:47,42.805,6.029,CST-1368DR,5004,6396,13661,0.535,551
2021-12-31T02:13:49,42.805,6.029,CST-1368DR,5004,6396,13660,0.535,551
2021-12-31T02:16:50,42.805,6.029,CST-1368DR,5004,6396,13661,0.535,551
2021-12-31T02:19:52,42.805,6.029,CST-1368DR,5004,6396,13660,0.535,551
2021-12-31T02:22:54,42.805,6.029,CST-1368DR,5004,6395,13659,0.536,550
2021-12-31T02:25:55,42.805,6.029,CST-1368DR,5004,6396,13660,0.535,551
2021-12-31T02:28:57,42.805,6.029,CST-1368DR,5004,6395,13660,0.535,551
2021-12-31T02:31:58,42.805,6.029,CST-1368DR,5004,6395,13660,0.535,551
2021-12-31T02:35:00,42.805,6.029,CST-1368DR,5004,6395,13659,0.536,551
2021-12-31T02:38:02,42.805,6.029,CST-1368DR,5004,6394,13657,0.536,551
2021-12-31T02:41:03,42.805,6.029,CST-1368DR,5004,6396,13660,0.535,551
2021-12-31T02:44:05,42.805,6.029,CST-1368DR,5004,6396,13660,0.535,551
2021-12-31T02:47:06,42.805,6.029,CST-1368DR,5004,6396,13661,0.535,551
2021-12-31T02:50:08,42.805,6.029,CST-1368DR,5004,6396,13661,0.535,551
2021-12-31T02:53:09,42.805,6.029,CST-1368DR,5004,6395,13659,0.536,551
2021-12-31T02:56:11,42.805,6.029,CST-1368DR,5004,6395,13658,0.536,551
2021-12-31T02:59:13,42.805,6.029,CST-1368DR,5004,6393,13654,0.537,551
2021-12-31T03:02:14,42.805,6.029,CST-1368DR,5004,6395,13660,0.535,551
2021-12-31T03:05:16,42.805,6.029,CST-1368DR,5004,6395,13660,0.535,551
2021-12-31T03:08:17,42.805,6.029,CST-1368DR,5004,6396,13660,0.535,551
2021-12-31T03:11:19,42.805,6.029,CST-1368DR,5004,6395,13658,0.536,551
2021-12-31T03:14:20,42.805,6.029,CST-1368DR,5004,6393,13655,0.537,551
2021-12-31T03:17:22,42.805,6.029,CST-1368DR,5004,6395,13659,0.536,551
2021-12-31T03:20:24,42.805,6.029,CST-1368DR,5004,6393,13655,0.537,551
2021-12-31T03:23:25,42.805,6.029,CST-1368DR,5004,6394,13657,0.536,551
2021-12-31T03:26:27,42.805,6.029,CST-1368DR,5004,6394,13658,0.536,551
2021-12-31T03:29:28,42.805,6.029,CST-1368DR,5004,6395,13658,0.536,551
2021-12-31T03:32:30,42.805,6.029,CST-1368DR,5004,6395,13658,0.536,551
2021-12-31T03:35:32,42.805,6.029,CST-1368DR,5004,6396,13661,0.535,551
2021-12-31T03:38:33,42.805,6.029,CST-1368DR,5004,6396,13660,0.535,551
2021-12-31T03:41:35,42.805,6.029,CST-1368DR,5004,6394,13658,0.536,551
2021-12-31T03:44:36,42.805,6.029,CST-1368DR,5004,6395,13659,0.536,551
2021-12-31T03:47:38,42.805,6.029,CST-1368DR,5004,6395,13660,0.535,551
2021-12-31T03:50:39,42.805,6.029,CST-1368DR,5004,6394,13658,0.536,551
2021-12-31T03:53:41,42.805,6.029,CST-1368DR,5004,6395,13660,0.535,551
2021-12-31T03:56:43,42.805,6.029,CST-1368DR,5004,6395,13659,0.536,551
2021-12-31T03:59:44,42.805,6.029,CST-1368DR,5004,6396,13660,0.535,551
2021-12-31T04:02:46,42.805,6.029,CST-1368DR,5004,6394,13658,0.536,551
2021-12-31T04:05:47,42.805,6.029,CST-1368DR,5004,6394,13658,0.536,551
2021-12-31T04:08:49,42.805,6.029,CST-1368DR,5004,6394,13658,0.536,551
2021-12-31T04:11:51,42.805,6.029,CST-1368DR,5004,6395,13660,0.535,551
2021-12-31T04:14:52,42.805,6.029,CST-1368DR,5004,6396,13661,0.535,551
2021-12-31T04:17:54,42.805,6.029,CST-1368DR,5004,6394,13657,0.536,551
2021-12-31T04:20:55,42.805,6.029,CST-1368DR,5004,6395,13659,0.536,551
2021-12-31T04:23:57,42.805,6.029,CST-1368DR,5004,6395,13659,0.536,551
2021-12-31T04:26:58,42.805,6.029,CST-1368DR,5004,6394,13658,0.536,551
2021-12-31T04:30:00,42.805,6.029,CST-1368DR,5004,6396,13660,0.535,551
2021-12-31T04:33:02,42.805,6.029,CST-1368DR,5004,6395,13660,0.535,550
2021-12-31T04:36:03,42.805,6.029,CST-1368DR,5004,6396,13660,0.535,551
2021-12-31T04:39:05,42.805,6.029,CST-1368DR,5004,6395,13659,0.536,551
2021-12-31T04:42:06,42.805,6.029,CST-1368DR,5004,6395,13659,0.536,551
2021-12-31T04:45:08,42.805,6.029,CST-1368DR,5004,6394,13657,0.536,551
2021-12-31T04:48:10,42.805,6.029,CST-1368DR,5004,6392,13653,0.537,551
2021-12-31T04:51:11,42.805,6.029,CST-1368DR,5004,6394,13656,0.536,551
2021-12-31T04:54:13,42.805,6.029,CST-1368DR,5004,6394,13657,0.536,551
2021-12-31T04:57:14,42.805,6.029,CST-1368DR,5004,6391,13651,0.538,551
2021-12-31T05:00:16,42.805,6.029,CST-1368DR,5004,6394,13658,0.536,551
2021-12-31T05:03:17,42.805,6.029,CST-1368DR,5004,6393,13654,0.537,551
2021-12-31T05:06:19,42.805,6.029,CST-1368DR,5004,6393,13654,0.537,551
2021-12-31T05:09:21,42.805,6.029,CST-1368DR,5004,6394,13656,0.536,551
2021-12-31T05:12:22,42.805,6.029,CST-1368DR,5004,6395,13658,0.536,551
2021-12-31T05:15:24,42.805,6.029,CST-1368DR,5004,6394,13657,0.536,551
2021-12-31T05:18:25,42.805,6.029,CST-1368DR,5004,6393,13655,0.537,551
2021-12-31T05:21:27,42.805,6.029,CST-1368DR,5004,6394,13658,0.536,551
2021-12-31T05:24:28,42.805,6.029,CST-1368DR,5004,6394,13656,0.536,551
2021-12-31T05:27:30,42.805,6.029,CST-1368DR,5004,6396,13660,0.535,551
2021-12-31T05:30:32,42.805,6.029,CST-1368DR,5004,6395,13658,0.536,551
2021-12-31T05:33:33,42.805,6.029,CST-1368DR,5004,6395,13658,0.536,551
2021-12-31T05:36:35,42.805,6.029,CST-1368DR,5004,6393,13655,0.537,551
2021-12-31T05:39:36,42.805,6.029,CST-1368DR,5004,6394,13658,0.536,551
2021-12-31T05:42:38,42.805,6.029,CST-1368DR,5004,6393,13655,0.537,551
2021-12-31T05:45:40,42.805,6.029,CST-1368DR,5004,6395,13658,0.536,551
2021-12-31T05:48:41,42.805,6.029,CST-1368DR,5004,6394,13657,0.536,551
2021-12-31T05:51:43,42.805,6.029,CST-1368DR,5004,6394,13658,0.536,551
2021-12-31T05:54:44,42.805,6.029,CST-1368DR,5004,6395,13658,0.536,551
2021-12-31T05:57:46,42.805,6.029,CST-1368DR,5004,6395,13659,0.536,551
2021-12-31T06:00:47,42.805,6.029,CST-1368DR,5004,6395,13659,0.536,551
2021-12-31T06:03:49,42.805,6.029,CST-1368DR,5004,6395,13658,0.536,551
2021-12-31T06:06:51,42.805,6.029,CST-1368DR,5004,6395,13658,0.536,551
2021-12-31T06:09:52,42.805,6.029,CST-1368DR,5004,6394,13657,0.536,551
2021-12-31T06:12:54,42.805,6.029,CST-1368DR,5004,6394,13658,0.536,551
2021-12-31T06:15:55,42.805,6.029,CST-1368DR,5004,6394,13657,0.536,551
2021-12-31T06:18:57,42.805,6.029,CST-1368DR,5004,6393,13655,0.537,551
2021-12-31T06:21:59,42.805,6.029,CST-1368DR,5004,6392,13653,0.537,551
2021-12-31T06:25:00,42.805,6.029,CST-1368DR,5004,6393,13655,0.537,551
2021-12-31T06:28:02,42.805,6.029,CST-1368DR,5004,6394,13658,0.536,551
2021-12-31T06:31:03,42.805,6.029,CST-1368DR,5004,6394,13656,0.536,551
2021-12-31T06:34:05,42.805,6.029,CST-1368DR,5004,6394,13658,0.536,551
2021-12-31T06:37:06,42.805,6.029,CST-1368DR,5004,6394,13658,0.536,551
2021-12-31T06:40:08,42.805,6.029,CST-1368DR,5004,6395,13660,0.535,551
2021-12-31T06:43:10,42.805,6.029,CST-1368DR,5004,6393,13655,0.537,551
2021-12-31T06:46:11,42.805,6.029,CST-1368DR,5004,6394,13657,0.536,551
2021-12-31T06:49:13,42.805,6.029,CST-1368DR,5004,6393,13654,0.537,551
2021-12-31T06:52:14,42.805,6.029,CST-1368DR,5004,6395,13658,0.536,551
2021-12-31T06:55:16,42.805,6.029,CST-1368DR,5004,6395,13659,0.536,551
2021-12-31T06:58:17,42.805,6.029,CST-1368DR,5004,6394,13656,0.536,550
2021-12-31T07:01:19,42.805,6.029,CST-1368DR,5004,6393,13654,0.537,551
2021-12-31T07:04:21,42.805,6.029,CST-1368DR,5004,6395,13658,0.536,551
2021-12-31T07:07:22,42.805,6.029,CST-1368DR,5004,6394,13656,0.536,551
2021-12-31T07:10:24,42.805,6.029,CST-1368DR,5004,6394,13658,0.536,551
2021-12-31T07:13:25,42.805,6.029,CST-1368DR,5004,6394,13658,0.536,551
2021-12-31T07:16:27,42.805,6.029,CST-1368DR,5004,6392,13652,0.538,551
2021-12-31T07:19:29,42.805,6.029,CST-1368DR,5004,6394,13658,0.536,551
2021-12-31T07:22:30,42.805,6.029,CST-1368DR,5004,6395,13658,0.536,551
2021-12-31T07:25:32,42.805,6.029,CST-1368DR,5004,6394,13657,0.536,551
2021-12-31T07:28:33,42.805,6.029,CST-1368DR,5004,6394,13657,0.536,551
2021-12-31T07:31:35,42.805,6.029,CST-1368DR,5004,6394,13657,0.536,551
2021-12-31T07:34:36,42.805,6.029,CST-1368DR,5004,6395,13658,0.536,551
2021-12-31T07:37:38,42.805,6.029,CST-1368DR,5004,6394,13658,0.536,551
2021-12-31T07:40:40,42.805,6.029,CST-1368DR,5004,6395,13659,0.536,551
2021-12-31T07:43:41,42.805,6.029,CST-1368DR,5004,6394,13656,0.536,550
2021-12-31T07:46:43,42.805,6.029,CST-1368DR,5004,6394,13657,0.536,551
2021-12-31T07:49:44,42.805,6.029,CST-1368DR,5004,6393,13654,0.537,551
2021-12-31T07:52:46,42.805,6.029,CST-1368DR,5004,6393,13654,0.537,551
2021-12-31T07:55:48,42.805,6.029,CST-1368DR,5004,6394,13657,0.536,551
2021-12-31T07:58:49,42.805,6.029,CST-1368DR,5004,6394,13657,0.536,551
2021-12-31T08:01:51,42.805,6.029,CST-1368DR,5004,6393,13654,0.537,551
2021-12-31T08:04:52,42.805,6.029,CST-1368DR,5004,6392,13653,0.537,551
2021-12-31T08:07:54,42.805,6.029,CST-1368DR,5004,6391,13651,0.538,551
2021-12-31T08:10:55,42.805,6.029,CST-1368DR,5004,6393,13655,0.537,551
2021-12-31T08:13:57,42.805,6.029,CST-1368DR,5004,6394,13656,0.536,551
2021-12-31T08:16:59,42.805,6.029,CST-1368DR,5004,6394,13657,0.536,551
2021-12-31T08:20:00,42.805,6.029,CST-1368DR,5004,6392,13653,0.537,551
2021-12-31T08:23:02,42.805,6.029,CST-1368DR,5004,6393,13654,0.537,551
2021-12-31T08:26:03,42.805,6.029,CST-1368DR,5004,6393,13655,0.537,551
2021-12-31T08:29:05,42.805,6.029,CST-1368DR,5004,6391,13650,0.538,551
2021-12-31T08:32:06,42.805,6.029,CST-1368DR,5004,6393,13654,0.537,551
2021-12-31T08:35:08,42.805,6.029,CST-1368DR,5004,6394,13656,0.536,551
2021-12-31T08:38:10,42.805,6.029,CST-1368DR,5004,6393,13655,0.537,551
2021-12-31T08:41:11,42.805,6.029,CST-1368DR,5004,6394,13656,0.536,551
2021-12-31T08:44:13,42.805,6.029,CST-1368DR,5004,6394,13656,0.536,551
2021-12-31T08:47:14,42.805,6.029,CST-1368DR,5003,6392,13655,0.537,551
2021-12-31T08:50:16,42.805,6.029,CST-1368DR,5003,6393,13657,0.536,551
2021-12-31T08:53:18,42.805,6.029,CST-1368DR,5003,6394,13659,0.536,551
2021-12-31T08:56:19,42.805,6.029,CST-1368DR,5003,6393,13658,0.536,551
2021-12-31T08:59:21,42.805,6.029,CST-1368DR,5003,6393,13658,0.536,551
2021-12-31T09:02:22,42.805,6.029,CST-1368DR,5004,6393,13655,0.537,551
2021-12-31T09:05:24,42.805,6.029,CST-1368DR,5003,6390,13651,0.538,551
2021-12-31T09:08:25,42.805,6.029,CST-1368DR,5003,6393,13658,0.536,551
2021-12-31T09:11:27,42.805,6.029,CST-1368DR,5003,6393,13657,0.536,551
2021-12-31T09:14:29,42.805,6.029,CST-1368DR,5003,6394,13659,0.536,551
2021-12-31T09:17:30,42.805,6.029,CST-1368DR,5004,6394,13656,0.536,551
2021-12-31T09:20:32,42.805,6.029,CST-1368DR,5003,6393,13657,0.536,551
2021-12-31T09:23:33,42.805,6.029,CST-1368DR,5003,6392,13656,0.536,551
2021-12-31T09:26:35,42.805,6.029,CST-1368DR,5003,6393,13658,0.536,551
2021-12-31T09:29:36,42.805,6.029,CST-1368DR,5003,6393,13658,0.536,551
2021-12-31T09:32:38,42.805,6.029,CST-1368DR,5003,6393,13658,0.536,551
2021-12-31T09:35:40,42.805,6.029,CST-1368DR,5003,6393,13657,0.536,551
2021-12-31T09:38:41,42.805,6.029,CST-1368DR,5003,6394,13659,0.536,551
2021-12-31T09:41:43,42.805,6.029,CST-1368DR,5003,6393,13658,0.536,551
2021-12-31T09:44:44,42.805,6.029,CST-1368DR,5003,6390,13651,0.538,551
2021-12-31T09:47:46,42.805,6.029,CST-1368DR,5003,6392,13655,0.537,551
2021-12-31T09:50:48,42.805,6.029,CST-1368DR,5003,6393,13658,0.536,551
2021-12-31T09:53:49,42.805,6.029,CST-1368DR,5003,6393,13658,0.536,551
2021-12-31T09:56:51,42.805,6.029,CST-1368DR,5003,6391,13654,0.537,551
2021-12-31T09:59:52,42.805,6.029,CST-1368DR,5003,6393,13656,0.536,551
2021-12-31T10:02:54,42.805,6.029,CST-1368DR,5003,6394,13659,0.536,551
2021-12-31T10:05:55,42.805,6.029,CST-1368DR,5003,6392,13655,0.537,551
2021-12-31T10:08:57,42.805,6.029,CST-1368DR,5003,6393,13658,0.536,551
2021-12-31T10:11:59,42.805,6.029,CST-1368DR,5003,6393,13658,0.536,551
2021-12-31T10:15:00,42.805,6.029,CST-1368DR,5003,6393,13658,0.536,551
2021-12-31T10:18:02,42.805,6.029,CST-1368DR,5003,6394,13659,0.536,551
2021-12-31T10:21:03,42.805,6.029,CST-1368DR,5003,6393,13657,0.536,551
2021-12-31T10:24:05,42.805,6.029,CST-1368DR,5003,6394,13659,0.536,551
2021-12-31T10:27:07,42.805,6.029,CST-1368DR,5003,6393,13656,0.536,551
2021-12-31T10:30:08,42.805,6.029,CST-1368DR,5003,6393,13658,0.536,551
2021-12-31T10:33:10,42.805,6.029,CST-1368DR,5003,6393,13658,0.536,551
2021-12-31T10:36:11,42.805,6.029,CST-1368DR,5003,6393,13656,0.536,551
2021-12-31T10:39:13,42.805,6.029,CST-1368DR,5003,6393,13658,0.536,551
2021-12-31T10:42:14,42.805,6.029,CST-1368DR,5003,6392,13656,0.536,551
2021-12-31T10:45:16,42.805,6.029,CST-1368DR,5003,6392,13655,0.537,551
2021-12-31T10:48:18,42.805,6.029,CST-1368DR,5003,6392,13656,0.536,551
2021-12-31T10:51:19,42.805,6.029,CST-1368DR,5003,6393,13656,0.536,551
2021-12-31T10:54:21,42.805,6.029,CST-1368DR,5003,6392,13656,0.536,551
2021-12-31T10:57:22,42.805,6.029,CST-1368DR,5003,6392,13655,0.537,551
2021-12-31T11:00:24,42.805,6.029,CST-1368DR,5003,6394,13659,0.536,551
2021-12-31T11:03:26,42.805,6.029,CST-1368DR,5003,6393,13658,0.536,551
2021-12-31T11:06:27,42.805,6.029,CST-1368DR,5003,6393,13657,0.536,551
2021-12-31T11:09:29,42.805,6.029,CST-1368DR,5003,6393,13657,0.536,551
2021-12-31T11:12:30,42.805,6.029,CST-1368DR,5003,6393,13657,0.536,551
2021-12-31T11:15:32,42.805,6.029,CST-1368DR,5003,6392,13655,0.537,551
2021-12-31T11:18:33,42.805,6.029,CST-1368DR,5003,6392,13656,0.536,551
2021-12-31T11:21:35,42.805,6.029,CST-1368DR,5003,6393,13657,0.536,551
2021-12-31T11:24:37,42.805,6.029,CST-1368DR,5003,6393,13658,0.536,551
2021-12-31T11:27:38,42.805,6.029,CST-1368DR,5003,6393,13657,0.536,551
2021-12-31T11:30:40,42.805,6.029,CST-1368DR,5003,6388,13646,0.539,551
2021-12-31T11:33:41,42.805,6.029,CST-1368DR,5003,6393,13658,0.536,551
2021-12-31T11:36:43,42.805,6.029,CST-1368DR,5003,6393,13656,0.536,551
2021-12-31T11:39:44,42.805,6.029,CST-1368DR,5003,6393,13656,0.536,551
2021-12-31T11:42:46,42.805,6.029,CST-1368DR,5003,6393,13656,0.536,551
2021-12-31T11:45:48,42.805,6.029,CST-1368DR,5003,6392,13655,0.537,551
2021-12-31T11:48:49,42.805,6.029,CST-1368DR,5003,6393,13658,0.536,551
2021-12-31T11:51:51,42.805,6.029,CST-1368DR,5003,6393,13657,0.536,551
2021-12-31T11:54:52,42.805,6.029,CST-1368DR,5003,6393,13656,0.536,551
2021-12-31T11:57:54,42.805,6.029,CST-1368DR,5003,6392,13656,0.536,551
2021-12-31T12:00:56,42.805,6.029,CST-1368DR,5003,6392,13656,0.536,551
2021-12-31T12:03:57,42.805,6.029,CST-1368DR,5003,6393,13658,0.536,551
2021-12-31T12:06:59,42.805,6.029,CST-1368DR,5003,6393,13656,0.536,551
2021-12-31T12:10:00,42.805,6.029,CST-1368DR,5003,6392,13656,0.536,551
2021-12-31T12:13:02,42.805,6.029,CST-1368DR,5003,6393,13657,0.536,551
2021-12-31T12:16:03,42.805,6.029,CST-1368DR,5003,6393,13657,0.536,551
2021-12-31T12:19:05,42.805,6.029,CST-1368DR,5003,6393,13657,0.536,551
2021-12-31T12:22:07,42.805,6.029,CST-1368DR,5003,6392,13656,0.536,551
2021-12-31T12:25:08,42.805,6.029,CST-1368DR,5003,6393,13658,0.536,551
2021-12-31T12:28:10,42.805,6.029,CST-1368DR,5003,6393,13657,0.536,551
2021-12-31T12:31:11,42.805,6.029,CST-1368DR,5003,6392,13656,0.536,551
2021-12-31T12:34:13,42.805,6.029,CST-1368DR,5003,6391,13652,0.538,551
2021-12-31T12:37:14,42.805,6.029,CST-1368DR,5003,6393,13656,0.536,551
2021-12-31T12:40:16,42.805,6.029,CST-1368DR,5003,6391,13653,0.537,551
2021-12-31T12:43:18,42.805,6.029,CST-1368DR,5003,6393,13656,0.536,551
2021-12-31T12:46:19,42.805,6.029,CST-1368DR,5003,6391,13654,0.537,551
2021-12-31T12:49:21,42.805,6.029,CST-1368DR,5003,6392,13656,0.536,551
2021-12-31T12:52:22,42.805,6.029,CST-1368DR,5003,6393,13656,0.536,551
2021-12-31T12:55:24,42.805,6.029,CST-1368DR,5003,6393,13657,0.536,551
2021-12-31T12:58:26,42.805,6.029,CST-1368DR,5003,6393,13656,0.536,550
2021-12-31T13:01:27,42.805,6.029,CST-1368DR,5003,6392,13656,0.536,551
2021-12-31T13:04:29,42.805,6.029,CST-1368DR,5003,6393,13658,0.536,551
2021-12-31T13:07:30,42.805,6.029,CST-1368DR,5003,6393,13657,0.536,551
2021-12-31T13:10:32,42.805,6.029,CST-1368DR,5003,6393,13658,0.536,551
2021-12-31T13:13:33,42.805,6.029,CST-1368DR,5003,6394,13659,0.536,551
2021-12-31T13:16:35,42.805,6.029,CST-1368DR,5003,6391,13653,0.537,551
2021-12-31T13:19:37,42.805,6.029,CST-1368DR,5003,6393,13656,0.536,551
2021-12-31T13:22:38,42.805,6.029,CST-1368DR,5003,6393,13657,0.536,551
2021-12-31T13:25:40,42.805,6.029,CST-1368DR,5003,6392,13655,0.537,551
2021-12-31T13:28:41,42.805,6.029,CST-1368DR,5003,6392,13656,0.536,551
2021-12-31T13:31:43,42.805,6.029,CST-1368DR,5003,6393,13656,0.536,551
2021-12-31T13:34:45,42.805,6.029,CST-1368DR,5003,6391,13653,0.537,551
2021-12-31T13:37:46,42.805,6.029,CST-1368DR,5003,6393,13656,0.536,551
2021-12-31T13:40:48,42.805,6.029,CST-1368DR,5003,6392,13655,0.537,551
2021-12-31T13:43:49,42.805,6.029,CST-1368DR,5003,6393,13656,0.536,551
2021-12-31T13:46:51,42.805,6.029,CST-1368DR,5003,6391,13653,0.537,551
2021-12-31T13:49:52,42.805,6.029,CST-1368DR,5003,6391,13653,0.537,551
2021-12-31T13:52:54,42.805,6.029,CST-1368DR,5003,6391,13654,0.537,551
2021-12-31T13:55:56,42.805,6.029,CST-1368DR,5003,6392,13655,0.537,551
2021-12-31T13:58:57,42.805,6.029,CST-1368DR,5003,6392,13655,0.537,551
2021-12-31T14:01:59,42.805,6.029,CST-1368DR,5003,6393,13656,0.536,551
2021-12-31T14:05:00,42.805,6.029,CST-1368DR,5003,6392,13656,0.536,551
2021-12-31T14:08:02,42.805,6.029,CST-1368DR,5003,6392,13656,0.536,551
2021-12-31T14:11:04,42.805,6.029,CST-1368DR,5003,6393,13658,0.536,551
2021-12-31T14:14:05,42.805,6.029,CST-1368DR,5003,6393,13658,0.536,551
2021-12-31T14:17:07,42.805,6.029,CST-1368DR,5003,6393,13656,0.536,551
2021-12-31T14:20:08,42.805,6.029,CST-1368DR,5003,6392,13656,0.536,551
2021-12-31T14:23:10,42.805,6.029,CST-1368DR,5003,6392,13656,0.536,551
2021-12-31T14:26:11,42.805,6.029,CST-1368DR,5003,6393,13656,0.536,551
2021-12-31T14:29:13,42.805,6.029,CST-1368DR,5003,6393,13657,0.536,551
2021-12-31T14:32:15,42.805,6.029,CST-1368DR,5003,6393,13657,0.536,551
2021-12-31T14:35:16,42.805,6.029,CST-1368DR,5003,6392,13656,0.536,551
2021-12-31T14:38:18,42.805,6.029,CST-1368DR,5003,6392,13656,0.536,551
2021-12-31T14:41:19,42.805,6.029,CST-1368DR,5003,6392,13656,0.536,551
2021-12-31T14:44:21,42.805,6.029,CST-1368DR,5003,6393,13657,0.536,551
2021-12-31T14:47:22,42.805,6.029,CST-1368DR,5003,6393,13657,0.536,551
2021-12-31T14:50:24,42.805,6.029,CST-1368DR,5003,6393,13656,0.536,551
2021-12-31T14:53:26,42.805,6.029,CST-1368DR,5003,6391,13653,0.537,551
2021-12-31T14:56:27,42.805,6.029,CST-1368DR,5003,6393,13657,0.536,551
2021-12-31T14:59:29,42.805,6.029,CST-1368DR,5003,6393,13656,0.536,551
2021-12-31T15:02:30,42.805,6.029,CST-1368DR,5003,6392,13655,0.537,551
2021-12-31T15:05:32,42.805,6.029,CST-1368DR,5003,6393,13658,0.536,551
2021-12-31T15:08:34,42.805,6.029,CST-1368DR,5003,6392,13656,0.536,551
2021-12-31T15:11:35,42.805,6.029,CST-1368DR,5003,6391,13652,0.538,551
2021-12-31T15:14:37,42.805,6.029,CST-1368DR,5003,6392,13655,0.537,551
2021-12-31T15:17:38,42.805,6.029,CST-1368DR,5003,6392,13656,0.536,551
2021-12-31T15:20:40,42.805,6.029,CST-1368DR,5003,6392,13656,0.536,551
2021-12-31T15:23:41,42.805,6.029,CST-1368DR,5003,6391,13654,0.537,551
2021-12-31T15:26:43,42.805,6.029,CST-1368DR,5003,6392,13655,0.537,551
2021-12-31T15:29:45,42.805,6.029,CST-1368DR,5003,6392,13655,0.537,551
2021-12-31T15:32:46,42.805,6.029,CST-1368DR,5003,6391,13654,0.537,551
2021-12-31T15:35:48,42.805,6.029,CST-1368DR,5003,6391,13654,0.537,551
2021-12-31T15:38:49,42.805,6.029,CST-1368DR,5003,6392,13655,0.537,551
2021-12-31T15:41:51,42.805,6.029,CST-1368DR,5003,6391,13653,0.537,551
2021-12-31T15:44:53,42.805,6.029,CST-1368DR,5003,6392,13655,0.537,551
2021-12-31T15:47:54,42.805,6.029,CST-1368DR,5003,6392,13655,0.537,551
2021-12-31T15:50:56,42.805,6.029,CST-1368DR,5003,6392,13656,0.536,551
2021-12-31T15:53:57,42.805,6.029,CST-1368DR,5003,6392,13656,0.536,551
2021-12-31T15:56:59,42.805,6.029,CST-1368DR,5003,6393,13658,0.536,551
2021-12-31T16:00:00,42.805,6.029,CST-1368DR,5003,6390,13650,0.538,551
2021-12-31T16:03:02,42.805,6.029,CST-1368DR,5003,6392,13656,0.536,551
2021-12-31T16:06:04,42.805,6.029,CST-1368DR,5003,6393,13656,0.536,551
2021-12-31T16:09:05,42.805,6.029,CST-1368DR,5003,6391,13654,0.537,551
2021-12-31T16:12:07,42.805,6.029,CST-1368DR,5003,6391,13654,0.537,551
2021-12-31T16:15:08,42.805,6.029,CST-1368DR,5003,6392,13656,0.536,551
2021-12-31T16:18:10,42.805,6.029,CST-1368DR,5003,6392,13656,0.536,551
2021-12-31T16:21:11,42.805,6.029,CST-1368DR,5003,6392,13655,0.537,551
2021-12-31T16:24:13,42.805,6.029,CST-1368DR,5003,6391,13654,0.537,551
2021-12-31T16:27:15,42.805,6.029,CST-1368DR,5003,6390,13650,0.538,551
2021-12-31T16:30:16,42.805,6.029,CST-1368DR,5003,6392,13655,0.537,551
2021-12-31T16:33:18,42.805,6.029,CST-1368DR,5003,6392,13655,0.537,551
2021-12-31T16:36:19,42.805,6.029,CST-1368DR,5003,6392,13656,0.536,551
2021-12-31T16:39:21,42.805,6.029,CST-1368DR,5003,6391,13653,0.537,551
2021-12-31T16:42:23,42.805,6.029,CST-1368DR,5003,6391,13654,0.537,551
2021-12-31T16:45:24,42.805,6.029,CST-1368DR,5003,6392,13656,0.536,551
2021-12-31T16:48:26,42.805,6.029,CST-1368DR,5003,6392,13655,0.537,551
2021-12-31T16:51:27,42.805,6.029,CST-1368DR,5003,6392,13656,0.536,551